User: anonymous   Login
Location: Hiram
(41.3130°N, 81.1440°W)
Time: 15:39:39
(UTC-04:00)
Language:

Iridium 62 - Orbit

View from above orbital plane
View from above orbital plane
View from above satellite
View from above satellite

Ground track
Ground track

The orbit data is extracted from the following two-line orbital elements,

1 25285U 98021A   18109.35779498 -.00000035  00000-0 -19567-4 0  9995
2 25285  86.3922  95.9658 0002356  85.4363 274.7102 14.34214678 48905
Epoch (UTC): 19 April 2018 08:35:13
Eccentricity: 0.0002356
inclination: 86.3922°
perigee height: 776 km
apogee height: 779 km
right ascension of ascending node: 95.9658°
argument of perigee: 85.4363°
revolutions per day: 14.34214678
mean anomaly at epoch: 274.7102°
orbit number at epoch: 4890

The dashed part of the orbit path shows where the satellite is in the earth's shadow,  

DLR